owner,sensor,date,latitude,longitude,vertical_datum,wind_speed,wind_to_direction,wind_speed_of_gust,qcFlag 
SCCF RECON,ioos:station:SCCF:53:1,2013-12-01T00:00:00Z,26.6493,-81.8810,2.11,2.7,39.2,-9999.0,'1111122,1111122,1111122' 
SCCF RECON,ioos:station:SCCF:53:1,2013-12-01T00:15:00Z,26.6493,-81.8810,2.11,2.7,40.7,-9999.0,'1111122,1111122,1111122' 
SCCF RECON,ioos:station:SCCF:53:1,2013-12-01T00:30:00Z,26.6493,-81.8810,2.11,2.9,39.5,-9999.0,'1111122,1111122,1111122' 
SCCF RECON,ioos:station:SCCF:53:1,2013-12-01T00:45:00Z,26.6493,-81.8810,2.11,3.5,47.8,-9999.0,'1111122,1111122,1111122' 
SCCF RECON,ioos:station:SCCF:53:1,2013-12-01T01:00:00Z,26.6493,-81.8810,2.11,4.2,58.2,-9999.0,'1111122,1111122,1111122' 
SCCF RECON,ioos:station:SCCF:53:1,2013-12-01T01:15:00Z,26.6493,-81.8810,2.11,3.6,50.8,-9999.0,'1111122,1111122,1111122' 
SCCF RECON,ioos:station:SCCF:53:1,2013-12-01T01:30:00Z,26.6493,-81.8810,2.11,4.3,49.9,-9999.0,'1111122,1111122,1111122' 
SCCF RECON,ioos:station:SCCF:53:1,2013-12-01T01:45:00Z,26.6493,-81.8810,2.11,2.9,53.4,-9999.0,'1111122,1111122,1111122' 
SCCF RECON,ioos:station:SCCF:53:1,2013-12-01T02:00:00Z,26.6493,-81.8810,2.11,2.8,33.0,-9999.0,'1111122,1111122,1111122' 
SCCF RECON,ioos:station:SCCF:53:1,2013-12-01T02:15:00Z,26.6493,-81.8810,2.11,2.0,28.4,-9999.0,'1111122,1111122,1111122' 
SCCF RECON,ioos:station:SCCF:53:1,2013-12-01T02:30:00Z,26.6493,-81.8810,2.11,2.5,19.2,-9999.0,'1111122,1111122,1111122' 
SCCF RECON,ioos:station:SCCF:53:1,2013-12-01T02:45:00Z,26.6493,-81.8810,2.11,3.3,21.4,-9999.0,'1111122,1111122,1111122' 
SCCF RECON,ioos:station:SCCF:53:1,2013-12-01T03:00:00Z,26.6493,-81.8810,2.11,3.4,28.7,-9999.0,'1111122,1111122,1111122' 
SCCF RECON,ioos:station:SCCF:53:1,2013-12-01T03:15:00Z,26.6493,-81.8810,2.11,3.6,45.5,-9999.0,'1111122,1111122,1111122' 
SCCF RECON,ioos:station:SCCF:53:1,2013-12-01T03:30:00Z,26.6493,-81.8810,2.11,5.8,39.9,-9999.0,'1111122,1111122,1111122' 
SCCF RECON,ioos:station:SCCF:53:1,2013-12-01T03:45:00Z,26.6493,-81.8810,2.11,4.3,37.3,-9999.0,'1111122,1111122,1111122' 
SCCF RECON,ioos:station:SCCF:53:1,2013-12-01T04:00:00Z,26.6493,-81.8810,2.11,4.6,40.0,-9999.0,'1111122,1111122,1111122' 
SCCF RECON,ioos:station:SCCF:53:1,2013-12-01T04:15:00Z,26.6493,-81.8810,2.11,4.2,43.4,-9999.0,'1111122,1111122,1111122' 
SCCF RECON,ioos:station:SCCF:53:1,2013-12-01T04:30:00Z,26.6493,-81.8810,2.11,4.7,35.0,-9999.0,'1111122,1111122,1111122' 
SCCF RECON,ioos:station:SCCF:53:1,2013-12-01T04:45:00Z,26.6493,-81.8810,2.11,4.0,37.0,-9999.0,'1111122,1111122,1111122' 
SCCF RECON,ioos:station:SCCF:53:1,2013-12-01T05:00:00Z,26.6493,-81.8810,2.11,3.7,35.3,-9999.0,'1111122,1111122,1111122' 
SCCF RECON,ioos:station:SCCF:53:1,2013-12-01T05:15:00Z,26.6493,-81.8810,2.11,4.0,36.6,-9999.0,'1111122,1111122,1111122' 
SCCF RECON,ioos:station:SCCF:53:1,2013-12-01T05:30:00Z,26.6493,-81.8810,2.11,4.4,22.4,-9999.0,'1111122,1111122,1111122' 
SCCF RECON,ioos:station:SCCF:53:1,2013-12-01T05:45:00Z,26.6493,-81.8810,2.11,4.1,30.9,-9999.0,'1111122,1111122,1111122' 
SCCF RECON,ioos:station:SCCF:53:1,2013-12-01T06:00:00Z,26.6493,-81.8810,2.11,3.9,43.7,-9999.0,'1111122,1111122,1111122' 
SCCF RECON,ioos:station:SCCF:53:1,2013-12-01T06:15:00Z,26.6493,-81.8810,2.11,3.8,34.6,-9999.0,'1111122,1111122,1111122' 
SCCF RECON,ioos:station:SCCF:53:1,2013-12-01T06:30:00Z,26.6493,-81.8810,2.11,3.7,30.1,-9999.0,'1111122,1111122,1111122' 
SCCF RECON,ioos:station:SCCF:53:1,2013-12-01T06:45:00Z,26.6493,-81.8810,2.11,3.1,26.6,-9999.0,'1111122,1111122,1111122' 
SCCF RECON,ioos:station:SCCF:53:1,2013-12-01T07:00:00Z,26.6493,-81.8810,2.11,2.9,33.6,-9999.0,'1111122,1111122,1111122' 
SCCF RECON,ioos:station:SCCF:53:1,2013-12-01T07:15:00Z,26.6493,-81.8810,2.11,4.6,36.0,-9999.0,'1111122,1111122,1111122' 
SCCF RECON,ioos:station:SCCF:53:1,2013-12-01T07:30:00Z,26.6493,-81.8810,2.11,3.6,38.1,-9999.0,'1111122,1111122,1111122' 
SCCF RECON,ioos:station:SCCF:53:1,2013-12-01T07:45:00Z,26.6493,-81.8810,2.11,3.7,31.6,-9999.0,'1111122,1111122,1111122' 
SCCF RECON,ioos:station:SCCF:53:1,2013-12-01T08:00:00Z,26.6493,-81.8810,2.11,4.2,39.6,-9999.0,'1111122,1111122,1111122' 
SCCF RECON,ioos:station:SCCF:53:1,2013-12-01T08:15:00Z,26.6493,-81.8810,2.11,4.3,27.9,-9999.0,'1111122,1111122,1111122' 
SCCF RECON,ioos:station:SCCF:53:1,2013-12-01T08:30:00Z,26.6493,-81.8810,2.11,4.9,30.3,-9999.0,'1111122,1111122,1111122' 
SCCF RECON,ioos:station:SCCF:53:1,2013-12-01T08:45:00Z,26.6493,-81.8810,2.11,5.4,34.5,-9999.0,'1111122,1111122,1111122' 
SCCF RECON,ioos:station:SCCF:53:1,2013-12-01T09:00:00Z,26.6493,-81.8810,2.11,5.9,20.2,-9999.0,'1111122,1111122,1111122' 
SCCF RECON,ioos:station:SCCF:53:1,2013-12-01T09:15:00Z,26.6493,-81.8810,2.11,5.0,39.3,-9999.0,'1111122,1111122,1111122' 
SCCF RECON,ioos:station:SCCF:53:1,2013-12-01T09:30:00Z,26.6493,-81.8810,2.11,5.0,20.0,-9999.0,'1111122,1111122,1111122' 
SCCF RECON,ioos:station:SCCF:53:1,2013-12-01T09:45:00Z,26.6493,-81.8810,2.11,4.1,23.5,-9999.0,'1111122,1111122,1111122' 
SCCF RECON,ioos:station:SCCF:53:1,2013-12-01T10:00:00Z,26.6493,-81.8810,2.11,4.7,32.7,-9999.0,'1111122,1111122,1111122' 
SCCF RECON,ioos:station:SCCF:53:1,2013-12-01T10:15:00Z,26.6493,-81.8810,2.11,4.6,20.7,-9999.0,'1111122,1111122,1111122' 
SCCF RECON,ioos:station:SCCF:53:1,2013-12-01T10:30:00Z,26.6493,-81.8810,2.11,4.5,35.0,-9999.0,'1111122,1111122,1111122' 
SCCF RECON,ioos:station:SCCF:53:1,2013-12-01T10:45:00Z,26.6493,-81.8810,2.11,5.4,23.8,-9999.0,'1111122,1111122,1111122' 
SCCF RECON,ioos:station:SCCF:53:1,2013-12-01T11:00:00Z,26.6493,-81.8810,2.11,5.1,30.4,-9999.0,'1111122,1111122,1111122' 
SCCF RECON,ioos:station:SCCF:53:1,2013-12-01T11:15:00Z,26.6493,-81.8810,2.11,4.5,31.8,-9999.0,'1111122,1111122,1111122' 
SCCF RECON,ioos:station:SCCF:53:1,2013-12-01T11:30:00Z,26.6493,-81.8810,2.11,3.6,37.9,-9999.0,'1111122,1111122,1111122' 
SCCF RECON,ioos:station:SCCF:53:1,2013-12-01T11:45:00Z,26.6493,-81.8810,2.11,3.8,22.2,-9999.0,'1111122,1111122,1111122' 
SCCF RECON,ioos:station:SCCF:53:1,2013-12-01T12:00:00Z,26.6493,-81.8810,2.11,4.0,24.6,-9999.0,'1111122,1111122,1111122' 
SCCF RECON,ioos:station:SCCF:53:1,2013-12-01T12:15:00Z,26.6493,-81.8810,2.11,4.2,27.4,-9999.0,'1111122,1111122,1111122' 
SCCF RECON,ioos:station:SCCF:53:1,2013-12-01T12:30:00Z,26.6493,-81.8810,2.11,3.9,30.0,-9999.0,'1111122,1111122,1111122' 
SCCF RECON,ioos:station:SCCF:53:1,2013-12-01T12:45:00Z,26.6493,-81.8810,2.11,3.7,26.5,-9999.0,'1111122,1111122,1111122' 
SCCF RECON,ioos:station:SCCF:53:1,2013-12-01T13:00:00Z,26.6493,-81.8810,2.11,5.0,19.5,-9999.0,'1111122,1111122,1111122' 
SCCF RECON,ioos:station:SCCF:53:1,2013-12-01T13:15:00Z,26.6493,-81.8810,2.11,4.5,28.6,-9999.0,'1111122,1111122,1111122' 
SCCF RECON,ioos:station:SCCF:53:1,2013-12-01T13:30:00Z,26.6493,-81.8810,2.11,3.7,29.6,-9999.0,'1111122,1111122,1111122' 
SCCF RECON,ioos:station:SCCF:53:1,2013-12-01T13:45:00Z,26.6493,-81.8810,2.11,3.2,16.6,-9999.0,'1111122,1111122,1111122' 
SCCF RECON,ioos:station:SCCF:53:1,2013-12-01T14:00:00Z,26.6493,-81.8810,2.11,2.9,21.1,-9999.0,'1111122,1111122,1111122' 
SCCF RECON,ioos:station:SCCF:53:1,2013-12-01T14:15:00Z,26.6493,-81.8810,2.11,3.7,7.6,-9999.0,'1111122,1111122,1111122' 
SCCF RECON,ioos:station:SCCF:53:1,2013-12-01T14:30:00Z,26.6493,-81.8810,2.11,4.3,17.2,-9999.0,'1111122,1111122,1111122' 
SCCF RECON,ioos:station:SCCF:53:1,2013-12-01T14:45:00Z,26.6493,-81.8810,2.11,2.9,19.8,-9999.0,'1111122,1111122,1111122' 
SCCF RECON,ioos:station:SCCF:53:1,2013-12-01T15:00:00Z,26.6493,-81.8810,2.11,2.5,23.3,-9999.0,'1111122,1111122,1111122' 
SCCF RECON,ioos:station:SCCF:53:1,2013-12-01T15:15:00Z,26.6493,-81.8810,2.11,3.9,3.6,-9999.0,'1111122,1111122,1111122' 
SCCF RECON,ioos:station:SCCF:53:1,2013-12-01T15:30:00Z,26.6493,-81.8810,2.11,4.2,30.3,-9999.0,'1111122,1111122,1111122' 
SCCF RECON,ioos:station:SCCF:53:1,2013-12-01T15:45:00Z,26.6493,-81.8810,2.11,4.5,6.7,-9999.0,'1111122,1111122,1111122' 
SCCF RECON,ioos:station:SCCF:53:1,2013-12-01T16:00:00Z,26.6493,-81.8810,2.11,4.9,17.2,-9999.0,'1111122,1111122,1111122' 
SCCF RECON,ioos:station:SCCF:53:1,2013-12-01T16:15:00Z,26.6493,-81.8810,2.11,3.5,3.0,-9999.0,'1111122,1111122,1111122' 
SCCF RECON,ioos:station:SCCF:53:1,2013-12-01T16:30:00Z,26.6493,-81.8810,2.11,5.2,17.4,-9999.0,'1111122,1111122,1111122' 
SCCF RECON,ioos:station:SCCF:53:1,2013-12-01T16:45:00Z,26.6493,-81.8810,2.11,3.6,13.4,-9999.0,'1111122,1111122,1111122' 
SCCF RECON,ioos:station:SCCF:53:1,2013-12-01T17:00:00Z,26.6493,-81.8810,2.11,2.9,25.9,-9999.0,'1111122,1111122,1111122' 
SCCF RECON,ioos:station:SCCF:53:1,2013-12-01T17:15:00Z,26.6493,-81.8810,2.11,2.3,21.7,-9999.0,'1111122,1111122,1111122' 
SCCF RECON,ioos:station:SCCF:53:1,2013-12-01T17:30:00Z,26.6493,-81.8810,2.11,2.4,46.9,-9999.0,'1111122,1111122,1111122' 
SCCF RECON,ioos:station:SCCF:53:1,2013-12-01T17:45:00Z,26.6493,-81.8810,2.11,2.6,47.4,-9999.0,'1111122,1111122,1111122' 
SCCF RECON,ioos:station:SCCF:53:1,2013-12-01T18:00:00Z,26.6493,-81.8810,2.11,3.1,36.9,-9999.0,'1111122,1111122,1111122' 
SCCF RECON,ioos:station:SCCF:53:1,2013-12-01T18:15:00Z,26.6493,-81.8810,2.11,3.3,48.2,-9999.0,'1111122,1111122,1111122' 
SCCF RECON,ioos:station:SCCF:53:1,2013-12-01T18:30:00Z,26.6493,-81.8810,2.11,2.8,57.0,-9999.0,'1111122,1111122,1111122' 
SCCF RECON,ioos:station:SCCF:53:1,2013-12-01T18:45:00Z,26.6493,-81.8810,2.11,1.6,51.8,-9999.0,'1111122,1111122,1111122' 
SCCF RECON,ioos:station:SCCF:53:1,2013-12-01T19:00:00Z,26.6493,-81.8810,2.11,1.9,53.1,-9999.0,'1111122,1111122,1111122' 
SCCF RECON,ioos:station:SCCF:53:1,2013-12-01T19:15:00Z,26.6493,-81.8810,2.11,0.9,38.5,-9999.0,'1111122,1111122,1111122' 
SCCF RECON,ioos:station:SCCF:53:1,2013-12-01T19:30:00Z,26.6493,-81.8810,2.11,2.1,79.2,-9999.0,'1111122,1111122,1111122' 
SCCF RECON,ioos:station:SCCF:53:1,2013-12-01T19:45:00Z,26.6493,-81.8810,2.11,0.4,39.8,-9999.0,'1111122,1111122,1111122' 
SCCF RECON,ioos:station:SCCF:53:1,2013-12-01T20:00:00Z,26.6493,-81.8810,2.11,0.6,355.0,-9999.0,'1111122,1111122,1111122' 
SCCF RECON,ioos:station:SCCF:53:1,2013-12-01T20:15:00Z,26.6493,-81.8810,2.11,2.5,352.7,-9999.0,'1111122,1111122,1111122' 
SCCF RECON,ioos:station:SCCF:53:1,2013-12-01T20:30:00Z,26.6493,-81.8810,2.11,5.3,20.7,-9999.0,'1111122,1111122,1111122' 
SCCF RECON,ioos:station:SCCF:53:1,2013-12-01T20:45:00Z,26.6493,-81.8810,2.11,3.9,18.7,-9999.0,'1111122,1111122,1111122' 
SCCF RECON,ioos:station:SCCF:53:1,2013-12-01T21:00:00Z,26.6493,-81.8810,2.11,5.2,19.7,-9999.0,'1111122,1111122,1111122' 
SCCF RECON,ioos:station:SCCF:53:1,2013-12-01T21:15:00Z,26.6493,-81.8810,2.11,6.2,27.6,-9999.0,'1111122,1111122,1111122' 
SCCF RECON,ioos:station:SCCF:53:1,2013-12-01T21:30:00Z,26.6493,-81.8810,2.11,4.0,33.2,-9999.0,'1111122,1111122,1111122' 
SCCF RECON,ioos:station:SCCF:53:1,2013-12-01T21:45:00Z,26.6493,-81.8810,2.11,2.6,31.2,-9999.0,'1111122,1111122,1111122' 
SCCF RECON,ioos:station:SCCF:53:1,2013-12-01T22:00:00Z,26.6493,-81.8810,2.11,2.5,35.2,-9999.0,'1111122,1111122,1111122' 
SCCF RECON,ioos:station:SCCF:53:1,2013-12-01T22:15:00Z,26.6493,-81.8810,2.11,3.6,17.0,-9999.0,'1111122,1111122,1111122' 
SCCF RECON,ioos:station:SCCF:53:1,2013-12-01T22:30:00Z,26.6493,-81.8810,2.11,5.1,24.1,-9999.0,'1111122,1111122,1111122' 
SCCF RECON,ioos:station:SCCF:53:1,2013-12-01T22:45:00Z,26.6493,-81.8810,2.11,4.2,3.5,-9999.0,'1111122,1111122,1111122' 
SCCF RECON,ioos:station:SCCF:53:1,2013-12-01T23:00:00Z,26.6493,-81.8810,2.11,4.5,21.3,-9999.0,'1111122,1111122,1111122' 
SCCF RECON,ioos:station:SCCF:53:1,2013-12-01T23:15:00Z,26.6493,-81.8810,2.11,5.5,20.9,-9999.0,'1111122,1111122,1111122' 
SCCF RECON,ioos:station:SCCF:53:1,2013-12-01T23:30:00Z,26.6493,-81.8810,2.11,4.3,22.8,-9999.0,'1111122,1111122,1111122' 
SCCF RECON,ioos:station:SCCF:53:1,2013-12-01T23:45:00Z,26.6493,-81.8810,2.11,7.2,19.2,-9999.0,'1111122,1111122,1111122' 
SCCF RECON,ioos:station:SCCF:53:1,2013-12-02T00:00:00Z,26.6493,-81.8810,2.11,4.9,39.9,-9999.0,'1111122,1111122,1111122' 
SCCF RECON,ioos:station:SCCF:53:1,2013-12-02T00:15:00Z,26.6493,-81.8810,2.11,4.9,30.6,-9999.0,'1111122,1111122,1111122' 
SCCF RECON,ioos:station:SCCF:53:1,2013-12-02T00:30:00Z,26.6493,-81.8810,2.11,4.1,32.2,-9999.0,'1111122,1111122,1111122' 
SCCF RECON,ioos:station:SCCF:53:1,2013-12-02T00:45:00Z,26.6493,-81.8810,2.11,5.0,34.3,-9999.0,'1111122,1111122,1111122' 
SCCF RECON,ioos:station:SCCF:53:1,2013-12-02T01:00:00Z,26.6493,-81.8810,2.11,4.2,43.8,-9999.0,'1111122,1111122,1111122' 
SCCF RECON,ioos:station:SCCF:53:1,2013-12-02T01:15:00Z,26.6493,-81.8810,2.11,3.8,33.1,-9999.0,'1111122,1111122,1111122' 
SCCF RECON,ioos:station:SCCF:53:1,2013-12-02T01:30:00Z,26.6493,-81.8810,2.11,5.9,47.5,-9999.0,'1111122,1111122,1111122' 
SCCF RECON,ioos:station:SCCF:53:1,2013-12-02T01:45:00Z,26.6493,-81.8810,2.11,4.5,54.9,-9999.0,'1111122,1111122,1111122' 
SCCF RECON,ioos:station:SCCF:53:1,2013-12-02T02:00:00Z,26.6493,-81.8810,2.11,3.5,46.2,-9999.0,'1111122,1111122,1111122' 
SCCF RECON,ioos:station:SCCF:53:1,2013-12-02T02:15:00Z,26.6493,-81.8810,2.11,2.3,41.9,-9999.0,'1111122,1111122,1111122' 
SCCF RECON,ioos:station:SCCF:53:1,2013-12-02T02:30:00Z,26.6493,-81.8810,2.11,2.6,42.1,-9999.0,'1111122,1111122,1111122' 
SCCF RECON,ioos:station:SCCF:53:1,2013-12-02T02:45:00Z,26.6493,-81.8810,2.11,3.1,44.6,-9999.0,'1111122,1111122,1111122' 
SCCF RECON,ioos:station:SCCF:53:1,2013-12-02T03:00:00Z,26.6493,-81.8810,2.11,3.2,51.8,-9999.0,'1111122,1111122,1111122' 
SCCF RECON,ioos:station:SCCF:53:1,2013-12-02T03:15:00Z,26.6493,-81.8810,2.11,2.5,54.5,-9999.0,'1111122,1111122,1111122' 
SCCF RECON,ioos:station:SCCF:53:1,2013-12-02T03:30:00Z,26.6493,-81.8810,2.11,2.6,60.0,-9999.0,'1111122,1111122,1111122' 
SCCF RECON,ioos:station:SCCF:53:1,2013-12-02T03:45:00Z,26.6493,-81.8810,2.11,2.5,57.2,-9999.0,'1111122,1111122,1111122' 
SCCF RECON,ioos:station:SCCF:53:1,2013-12-02T04:00:00Z,26.6493,-81.8810,2.11,1.9,70.0,-9999.0,'1111122,1111122,1111122' 
SCCF RECON,ioos:station:SCCF:53:1,2013-12-02T04:15:00Z,26.6493,-81.8810,2.11,2.4,62.2,-9999.0,'1111122,1111122,1111122' 
SCCF RECON,ioos:station:SCCF:53:1,2013-12-02T04:30:00Z,26.6493,-81.8810,2.11,2.3,51.0,-9999.0,'1111122,1111122,1111122' 
SCCF RECON,ioos:station:SCCF:53:1,2013-12-02T04:45:00Z,26.6493,-81.8810,2.11,2.4,48.9,-9999.0,'1111122,1111122,1111122' 
SCCF RECON,ioos:station:SCCF:53:1,2013-12-02T05:00:00Z,26.6493,-81.8810,2.11,1.8,76.8,-9999.0,'1111122,1111122,1111122' 
SCCF RECON,ioos:station:SCCF:53:1,2013-12-02T05:15:00Z,26.6493,-81.8810,2.11,2.2,69.7,-9999.0,'1111122,1111122,1111122' 
SCCF RECON,ioos:station:SCCF:53:1,2013-12-02T05:30:00Z,26.6493,-81.8810,2.11,1.3,59.2,-9999.0,'1111122,1111122,1111122' 
SCCF RECON,ioos:station:SCCF:53:1,2013-12-02T05:45:00Z,26.6493,-81.8810,2.11,1.9,56.2,-9999.0,'1111122,1111122,1111122' 
SCCF RECON,ioos:station:SCCF:53:1,2013-12-02T06:00:00Z,26.6493,-81.8810,2.11,1.2,30.9,-9999.0,'1111122,1111122,1111122' 
SCCF RECON,ioos:station:SCCF:53:1,2013-12-02T06:15:00Z,26.6493,-81.8810,2.11,1.0,37.0,-9999.0,'1111122,1111122,1111122' 
SCCF RECON,ioos:station:SCCF:53:1,2013-12-02T06:30:00Z,26.6493,-81.8810,2.11,1.3,35.6,-9999.0,'1111122,1111122,1111122' 
SCCF RECON,ioos:station:SCCF:53:1,2013-12-02T06:45:00Z,26.6493,-81.8810,2.11,1.8,3.9,-9999.0,'1111122,1111122,1111122' 
SCCF RECON,ioos:station:SCCF:53:1,2013-12-02T07:00:00Z,26.6493,-81.8810,2.11,2.3,326.5,-9999.0,'1111122,1111122,1111122' 
SCCF RECON,ioos:station:SCCF:53:1,2013-12-02T07:15:00Z,26.6493,-81.8810,2.11,2.6,338.4,-9999.0,'1111122,1111122,1111122' 
SCCF RECON,ioos:station:SCCF:53:1,2013-12-02T07:30:00Z,26.6493,-81.8810,2.11,2.4,340.2,-9999.0,'1111122,1111122,1111122' 
SCCF RECON,ioos:station:SCCF:53:1,2013-12-02T07:45:00Z,26.6493,-81.8810,2.11,1.6,347.4,-9999.0,'1111122,1111122,1111122' 
SCCF RECON,ioos:station:SCCF:53:1,2013-12-02T08:00:00Z,26.6493,-81.8810,2.11,0.9,6.4,-9999.0,'1111122,1111122,1111122' 
SCCF RECON,ioos:station:SCCF:53:1,2013-12-02T08:15:00Z,26.6493,-81.8810,2.11,1.3,322.0,-9999.0,'1111122,1111122,1111122' 
SCCF RECON,ioos:station:SCCF:53:1,2013-12-02T08:30:00Z,26.6493,-81.8810,2.11,1.7,308.7,-9999.0,'1111122,1111122,1111122' 
SCCF RECON,ioos:station:SCCF:53:1,2013-12-02T08:45:00Z,26.6493,-81.8810,2.11,2.4,322.4,-9999.0,'1111122,1111122,1111122' 
SCCF RECON,ioos:station:SCCF:53:1,2013-12-02T09:00:00Z,26.6493,-81.8810,2.11,2.3,299.3,-9999.0,'1111122,1111122,1111122' 
SCCF RECON,ioos:station:SCCF:53:1,2013-12-02T09:15:00Z,26.6493,-81.8810,2.11,2.0,321.6,-9999.0,'1111122,1111122,1111122' 
SCCF RECON,ioos:station:SCCF:53:1,2013-12-02T09:30:00Z,26.6493,-81.8810,2.11,2.3,317.2,-9999.0,'1111122,1111122,1111122' 
SCCF RECON,ioos:station:SCCF:53:1,2013-12-02T09:45:00Z,26.6493,-81.8810,2.11,1.9,311.3,-9999.0,'1111122,1111122,1111122' 
SCCF RECON,ioos:station:SCCF:53:1,2013-12-02T10:00:00Z,26.6493,-81.8810,2.11,4.1,324.3,-9999.0,'1111122,1111122,1111122' 
SCCF RECON,ioos:station:SCCF:53:1,2013-12-02T10:15:00Z,26.6493,-81.8810,2.11,3.2,330.4,-9999.0,'1111122,1111122,1111122' 
SCCF RECON,ioos:station:SCCF:53:1,2013-12-02T10:30:00Z,26.6493,-81.8810,2.11,1.6,329.7,-9999.0,'1111122,1111122,1111122' 
SCCF RECON,ioos:station:SCCF:53:1,2013-12-02T10:45:00Z,26.6493,-81.8810,2.11,1.2,2.2,-9999.0,'1111122,1111122,1111122' 
SCCF RECON,ioos:station:SCCF:53:1,2013-12-02T11:00:00Z,26.6493,-81.8810,2.11,1.9,336.0,-9999.0,'1111122,1111122,1111122' 
SCCF RECON,ioos:station:SCCF:53:1,2013-12-02T11:15:00Z,26.6493,-81.8810,2.11,1.3,286.1,-9999.0,'1111122,1111122,1111122' 
SCCF RECON,ioos:station:SCCF:53:1,2013-12-02T11:30:00Z,26.6493,-81.8810,2.11,1.3,304.9,-9999.0,'1111122,1111122,1111122' 
SCCF RECON,ioos:station:SCCF:53:1,2013-12-02T11:45:00Z,26.6493,-81.8810,2.11,1.8,304.3,-9999.0,'1111122,1111122,1111122' 
SCCF RECON,ioos:station:SCCF:53:1,2013-12-02T12:00:00Z,26.6493,-81.8810,2.11,3.9,325.7,-9999.0,'1111122,1111122,1111122' 
SCCF RECON,ioos:station:SCCF:53:1,2013-12-02T12:15:00Z,26.6493,-81.8810,2.11,3.0,314.5,-9999.0,'1111122,1111122,1111122' 
SCCF RECON,ioos:station:SCCF:53:1,2013-12-02T12:30:00Z,26.6493,-81.8810,2.11,1.6,292.8,-9999.0,'1111122,1111122,1111122' 
SCCF RECON,ioos:station:SCCF:53:1,2013-12-02T12:45:00Z,26.6493,-81.8810,2.11,2.6,304.6,-9999.0,'1111122,1111122,1111122' 
SCCF RECON,ioos:station:SCCF:53:1,2013-12-02T13:00:00Z,26.6493,-81.8810,2.11,2.9,322.6,-9999.0,'1111122,1111122,1111122' 
SCCF RECON,ioos:station:SCCF:53:1,2013-12-02T13:15:00Z,26.6493,-81.8810,2.11,2.1,313.3,-9999.0,'1111122,1111122,1111122' 
SCCF RECON,ioos:station:SCCF:53:1,2013-12-02T13:30:00Z,26.6493,-81.8810,2.11,1.9,310.0,-9999.0,'1111122,1111122,1111122' 
SCCF RECON,ioos:station:SCCF:53:1,2013-12-02T13:45:00Z,26.6493,-81.8810,2.11,1.5,304.6,-9999.0,'1111122,1111122,1111122' 
SCCF RECON,ioos:station:SCCF:53:1,2013-12-02T14:00:00Z,26.6493,-81.8810,2.11,3.0,345.8,-9999.0,'1111122,1111122,1111122' 
SCCF RECON,ioos:station:SCCF:53:1,2013-12-02T14:15:00Z,26.6493,-81.8810,2.11,2.4,351.3,-9999.0,'1111122,1111122,1111122' 
SCCF RECON,ioos:station:SCCF:53:1,2013-12-02T14:30:00Z,26.6493,-81.8810,2.11,0.7,310.1,-9999.0,'1111122,1111122,1111122' 
SCCF RECON,ioos:station:SCCF:53:1,2013-12-02T14:45:00Z,26.6493,-81.8810,2.11,0.5,299.4,-9999.0,'1111122,1111122,1111122' 
SCCF RECON,ioos:station:SCCF:53:1,2013-12-02T15:00:00Z,26.6493,-81.8810,2.11,0.2,214.7,-9999.0,'1111122,1111122,1111122' 
SCCF RECON,ioos:station:SCCF:53:1,2013-12-02T15:15:00Z,26.6493,-81.8810,2.11,1.3,200.1,-9999.0,'1111122,1111122,1111122' 
SCCF RECON,ioos:station:SCCF:53:1,2013-12-02T15:30:00Z,26.6493,-81.8810,2.11,2.0,199.0,-9999.0,'1111122,1111122,1111122' 
SCCF RECON,ioos:station:SCCF:53:1,2013-12-02T15:45:00Z,26.6493,-81.8810,2.11,1.3,206.2,-9999.0,'1111122,1111122,1111122' 
SCCF RECON,ioos:station:SCCF:53:1,2013-12-02T16:00:00Z,26.6493,-81.8810,2.11,1.2,192.4,-9999.0,'1111122,1111122,1111122' 
SCCF RECON,ioos:station:SCCF:53:1,2013-12-02T16:15:00Z,26.6493,-81.8810,2.11,1.0,201.2,-9999.0,'1111122,1111122,1111122' 
SCCF RECON,ioos:station:SCCF:53:1,2013-12-02T16:30:00Z,26.6493,-81.8810,2.11,1.4,190.1,-9999.0,'1111122,1111122,1111122' 
SCCF RECON,ioos:station:SCCF:53:1,2013-12-02T16:45:00Z,26.6493,-81.8810,2.11,3.2,327.4,-9999.0,'1111122,1111122,1111122' 
SCCF RECON,ioos:station:SCCF:53:1,2013-12-02T17:00:00Z,26.6493,-81.8810,2.11,3.1,340.6,-9999.0,'1111122,1111122,1111122' 
SCCF RECON,ioos:station:SCCF:53:1,2013-12-02T17:15:00Z,26.6493,-81.8810,2.11,2.9,335.6,-9999.0,'1111122,1111122,1111122' 
SCCF RECON,ioos:station:SCCF:53:1,2013-12-02T17:30:00Z,26.6493,-81.8810,2.11,2.5,284.6,-9999.0,'1111122,1111122,1111122' 
SCCF RECON,ioos:station:SCCF:53:1,2013-12-02T17:45:00Z,26.6493,-81.8810,2.11,0.5,326.7,-9999.0,'1111122,1111122,1111122' 
SCCF RECON,ioos:station:SCCF:53:1,2013-12-02T18:00:00Z,26.6493,-81.8810,2.11,1.1,339.1,-9999.0,'1111122,1111122,1111122' 
SCCF RECON,ioos:station:SCCF:53:1,2013-12-02T18:15:00Z,26.6493,-81.8810,2.11,-9999.0,45.2,-9999.0,'1111122,1111122,1111122' 
SCCF RECON,ioos:station:SCCF:53:1,2013-12-02T18:30:00Z,26.6493,-81.8810,2.11,1.6,338.5,-9999.0,'1111122,1111122,1111122' 
SCCF RECON,ioos:station:SCCF:53:1,2013-12-02T18:45:00Z,26.6493,-81.8810,2.11,2.5,341.2,-9999.0,'1111122,1111122,1111122' 
SCCF RECON,ioos:station:SCCF:53:1,2013-12-02T19:00:00Z,26.6493,-81.8810,2.11,2.2,334.6,-9999.0,'1111122,1111122,1111122' 
SCCF RECON,ioos:station:SCCF:53:1,2013-12-02T19:15:00Z,26.6493,-81.8810,2.11,2.6,332.2,-9999.0,'1111122,1111122,1111122' 
SCCF RECON,ioos:station:SCCF:53:1,2013-12-02T19:30:00Z,26.6493,-81.8810,2.11,4.2,297.7,-9999.0,'1111122,1111122,1111122' 
SCCF RECON,ioos:station:SCCF:53:1,2013-12-02T19:45:00Z,26.6493,-81.8810,2.11,2.4,321.6,-9999.0,'1111122,1111122,1111122' 
SCCF RECON,ioos:station:SCCF:53:1,2013-12-02T20:00:00Z,26.6493,-81.8810,2.11,1.5,320.6,-9999.0,'1111122,1111122,1111122' 
SCCF RECON,ioos:station:SCCF:53:1,2013-12-02T20:15:00Z,26.6493,-81.8810,2.11,3.3,294.5,-9999.0,'1111122,1111122,1111122' 
SCCF RECON,ioos:station:SCCF:53:1,2013-12-02T20:30:00Z,26.6493,-81.8810,2.11,2.6,299.3,-9999.0,'1111122,1111122,1111122' 
SCCF RECON,ioos:station:SCCF:53:1,2013-12-02T20:45:00Z,26.6493,-81.8810,2.11,3.6,308.5,-9999.0,'1111122,1111122,1111122' 
SCCF RECON,ioos:station:SCCF:53:1,2013-12-02T21:00:00Z,26.6493,-81.8810,2.11,3.6,292.1,-9999.0,'1111122,1111122,1111122' 
SCCF RECON,ioos:station:SCCF:53:1,2013-12-02T21:15:00Z,26.6493,-81.8810,2.11,2.0,327.5,-9999.0,'1111122,1111122,1111122' 
SCCF RECON,ioos:station:SCCF:53:1,2013-12-02T21:30:00Z,26.6493,-81.8810,2.11,1.5,309.9,-9999.0,'1111122,1111122,1111122' 
SCCF RECON,ioos:station:SCCF:53:1,2013-12-02T21:45:00Z,26.6493,-81.8810,2.11,2.0,295.5,-9999.0,'1111122,1111122,1111122' 
SCCF RECON,ioos:station:SCCF:53:1,2013-12-02T22:00:00Z,26.6493,-81.8810,2.11,1.4,296.2,-9999.0,'1111122,1111122,1111122' 
SCCF RECON,ioos:station:SCCF:53:1,2013-12-02T22:15:00Z,26.6493,-81.8810,2.11,1.8,283.1,-9999.0,'1111122,1111122,1111122' 
SCCF RECON,ioos:station:SCCF:53:1,2013-12-02T22:30:00Z,26.6493,-81.8810,2.11,1.2,292.4,-9999.0,'1111122,1111122,1111122' 
SCCF RECON,ioos:station:SCCF:53:1,2013-12-02T22:45:00Z,26.6493,-81.8810,2.11,1.1,345.6,-9999.0,'1111122,1111122,1111122' 
SCCF RECON,ioos:station:SCCF:53:1,2013-12-02T23:00:00Z,26.6493,-81.8810,2.11,1.0,336.8,-9999.0,'1111122,1111122,1111122' 
SCCF RECON,ioos:station:SCCF:53:1,2013-12-02T23:15:00Z,26.6493,-81.8810,2.11,1.2,335.0,-9999.0,'1111122,1111122,1111122' 
SCCF RECON,ioos:station:SCCF:53:1,2013-12-02T23:30:00Z,26.6493,-81.8810,2.11,1.5,335.8,-9999.0,'1111122,1111122,1111122' 
SCCF RECON,ioos:station:SCCF:53:1,2013-12-02T23:45:00Z,26.6493,-81.8810,2.11,2.5,340.4,-9999.0,'1111122,1111122,1111122' 
SCCF RECON,ioos:station:SCCF:53:1,2013-12-03T00:00:00Z,26.6493,-81.8810,2.11,1.8,351.3,-9999.0,'1111122,1111122,1111122' 
SCCF RECON,ioos:station:SCCF:53:1,2013-12-03T00:15:00Z,26.6493,-81.8810,2.11,1.2,348.1,-9999.0,'1111122,1111122,1111122' 
SCCF RECON,ioos:station:SCCF:53:1,2013-12-03T00:30:00Z,26.6493,-81.8810,2.11,1.5,342.7,-9999.0,'1111122,1111122,1111122' 
SCCF RECON,ioos:station:SCCF:53:1,2013-12-03T00:45:00Z,26.6493,-81.8810,2.11,1.6,346.1,-9999.0,'1111122,1111122,1111122' 